VALLADOLID / VILLANUBLA current weather conditions

sailwx.info

Wind from 010 at 8 knots

Air temperature 13.0° C
Dewpoint 2.0° C

Last reported at 2015-Mar-31 19:30 UTC.
Time now 2015-Apr-01 05:54 UTC

Location: N 41°43' W 004°51'.
View on Google Maps.

See reports from other nearby stations

  
Tides and Currents Weather Stations Pressure Air Temp Water Temp Dewpoint Dewpoint Depression Visibility Wind Speed Wind Dir Waves Ship Positions
date/time (UTC)wind fromknots sea level pressurealtimeterstation pressurevisibilityair tempwater tempwave heightnotes
2015-Mar-31 19:30 010 8 13.0
2015-Mar-31 19:00 350 6 15.0
2015-Mar-31 18:30 340 4 18.0
2015-Mar-31 18:00 330 5 20.0
2015-Mar-31 17:30 330 5 22.0
2015-Mar-31 17:00 330 7 22.0
2015-Mar-31 16:30 330 6 22.0
2015-Mar-31 16:00 310 9 22.0
2015-Mar-31 15:30 340 10 22.0
2015-Mar-31 15:00 350 11 22.0
2015-Mar-31 14:30 320 10 22.0
2015-Mar-31 14:00 340 9 22.0
2015-Mar-31 13:30 320 8 21.0
2015-Mar-31 13:00 310 7 21.0
2015-Mar-31 12:30 360 4 20.0
2015-Mar-31 12:00 360 6 19.0
2015-Mar-31 11:30 340 7 19.0
2015-Mar-31 11:00 350 8 18.0
2015-Mar-31 10:30 350 7 18.0
2015-Mar-31 10:00 350 4 16.0
2015-Mar-31 09:30 330 8 15.0
2015-Mar-31 09:00 320 8 14.0
2015-Mar-31 08:30 310 9 13.0
2015-Mar-31 08:00 290 7 11.0
2015-Mar-31 07:30 290 4 9.0
2015-Mar-31 07:00 280 6 7.0
2015-Mar-31 06:30 300 3 4.0
2015-Mar-31 06:00 330 5 5.0
2015-Mar-31 05:30 330 7 5.0
2015-Mar-31 05:00 320 7 6.0
2015-Mar-30 19:30 270 7 18.0
2015-Mar-30 19:00 270 6 18.0
2015-Mar-30 18:30 300 4 20.0
2015-Mar-30 18:00 320 7 21.0
2015-Mar-30 17:30 320 6 22.0
2015-Mar-30 17:00 320 7 23.0
2015-Mar-30 16:30 320 7 23.0
2015-Mar-30 16:00 310 9 23.0
2015-Mar-30 15:30 320 11 23.0
2015-Mar-30 15:00 310 9 23.0
2015-Mar-30 14:30 310 9 23.0
2015-Mar-30 14:00 310 8 22.0
2015-Mar-30 13:30 340 11 22.0
2015-Mar-30 13:00 310 10 22.0
2015-Mar-30 12:30 310 10 21.0
2015-Mar-30 12:00 310 10 20.0
2015-Mar-30 11:30 310 9 19.0
2015-Mar-30 11:00 300 10 18.0
2015-Mar-30 10:30 290 10 18.0
2015-Mar-30 10:00 310 12 17.0
2015-Mar-30 09:30 310 9 16.0
2015-Mar-30 09:00 280 8 13.0
2015-Mar-30 08:30 250 9 11.0
2015-Mar-30 08:00 250 9 10.0
2015-Mar-30 07:30 260 8 8.0
2015-Mar-30 07:00 220 7 6.0
2015-Mar-30 06:30 220 7 5.0
2015-Mar-30 06:00 230 7 5.0
2015-Mar-30 05:30 250 6 6.0
2015-Mar-30 05:00 6.0